Hourly Weather Kozinka

Today, 20 October, Tuesday

Time Temperature Precipitation Wind Pressure Humidity
00:00 +1°C° 0 mm 5 mps 742 mmHg 79%
01:00 +1°C° 0 mm 5 mps 743 mmHg 80%
02:00 +1°C° 0 mm 5 mps 743 mmHg 81%
03:00 0°C° 0 mm 5 mps 743 mmHg 82%
04:00 0°C° 0 mm 5 mps 743 mmHg 84%
05:00 0°C° 0 mm 5 mps 743 mmHg 85%
06:00 -1°C° 0 mm 6 mps 743 mmHg 84%
07:00 +1°C° 0 mm 6 mps 743 mmHg 82%
08:00 +1°C° 0 mm 6 mps 743 mmHg 81%
09:00 +2°C° 0 mm 7 mps 743 mmHg 74%
10:00 +3°C° 0 mm 7 mps 743 mmHg 67%
11:00 +4°C° 0 mm 8 mps 743 mmHg 61%
12:00 +5°C° 0 mm 8 mps 743 mmHg 60%
13:00 +5°C° 0 mm 8 mps 743 mmHg 59%
14:00 +5°C° 0 mm 8 mps 743 mmHg 58%
15:00 +4°C° 0.1 mm 7 mps 744 mmHg 64%
16:00 +3°C° 0.1 mm 7 mps 744 mmHg 70%
17:00 +2°C° 0.1 mm 7 mps 744 mmHg 76%
18:00 +2°C° 0 mm 6 mps 744 mmHg 75%
19:00 +1°C° 0 mm 6 mps 745 mmHg 75%
20:00 +1°C° 0 mm 5 mps 746 mmHg 74%
21:00 0°C° 0 mm 5 mps 746 mmHg 77%
22:00 0°C° 0 mm 4 mps 746 mmHg 80%
23:00 -1°C° 0 mm 4 mps 746 mmHg 82%

Tomorrow, 21 October, Wednesday

Time Temperature Precipitation Wind Pressure Humidity
00:00 -1°C° 0 mm 4 mps 747 mmHg 84%
01:00 0°C° 0 mm 3 mps 747 mmHg 86%
02:00 -1°C° 0 mm 3 mps 748 mmHg 87%
03:00 -1°C° 0 mm 3 mps 748 mmHg 87%
04:00 -1°C° 0 mm 3 mps 748 mmHg 88%
05:00 -1°C° 0 mm 3 mps 748 mmHg 88%
06:00 0°C° 0 mm 3 mps 748 mmHg 84%
07:00 0°C° 0 mm 3 mps 748 mmHg 79%
08:00 +1°C° 0 mm 3 mps 748 mmHg 75%
09:00 +2°C° 0 mm 3 mps 748 mmHg 71%
10:00 +3°C° 0 mm 3 mps 747 mmHg 67%
11:00 +4°C° 0 mm 3 mps 747 mmHg 64%
12:00 +4°C° 0 mm 3 mps 747 mmHg 66%
13:00 +4°C° 0 mm 3 mps 746 mmHg 69%
14:00 +4°C° 0 mm 3 mps 746 mmHg 71%
15:00 +4°C° 0.2 mm 3 mps 746 mmHg 77%
16:00 +4°C° 0.2 mm 4 mps 745 mmHg 82%
17:00 +3°C° 0.2 mm 4 mps 745 mmHg 88%
18:00 +3°C° 0.2 mm 4 mps 744 mmHg 89%
19:00 +4°C° 0.2 mm 3 mps 744 mmHg 90%
20:00 +4°C° 0.2 mm 3 mps 744 mmHg 91%
21:00 +4°C° 0.1 mm 3 mps 744 mmHg 92%
22:00 +5°C° 0.1 mm 2 mps 743 mmHg 92%
23:00 +5°C° 0.1 mm 2 mps 743 mmHg 93%

Day after tomorrow, 22 October, Thursday

Time Temperature Precipitation Wind Pressure Humidity
00:00 +5°C° 0.1 mm 2 mps 743 mmHg 94%
01:00 +5°C° 0.1 mm 2 mps 743 mmHg 95%
02:00 +6°C° 0.1 mm 1 mps 743 mmHg 95%
03:00 +6°C° 0 mm 1 mps 743 mmHg 96%
04:00 +6°C° 0 mm 1 mps 743 mmHg 96%
05:00 +6°C° 0 mm 1 mps 743 mmHg 97%
06:00 +6°C° 0 mm 1 mps 744 mmHg 95%
07:00 +6°C° 0 mm 1 mps 744 mmHg 94%
08:00 +7°C° 0 mm 1 mps 744 mmHg 93%
09:00 +7°C° 0 mm 2 mps 744 mmHg 89%
10:00 +8°C° 0 mm 2 mps 743 mmHg 84%
11:00 +9°C° 0 mm 3 mps 743 mmHg 80%
12:00 +8°C° 0 mm 3 mps 743 mmHg 81%
13:00 +8°C° 0 mm 3 mps 743 mmHg 81%
14:00 +8°C° 0 mm 3 mps 743 mmHg 82%
15:00 +7°C° 0.3 mm 4 mps 742 mmHg 85%
16:00 +7°C° 0.3 mm 4 mps 742 mmHg 87%
17:00 +7°C° 0.3 mm 4 mps 741 mmHg 90%
18:00 +7°C° 0 mm 4 mps 741 mmHg 89%
19:00 +7°C° 0 mm 4 mps 741 mmHg 89%
20:00 +7°C° 0 mm 4 mps 741 mmHg 89%
21:00 +7°C° 0 mm 4 mps 741 mmHg 90%
22:00 +6°C° 0 mm 4 mps 741 mmHg 91%
23:00 +7°C° 0 mm 3 mps 741 mmHg 92%

23 October, Friday

Time Temperature Precipitation Wind Pressure Humidity
00:00 +6°C° 0 mm 4 mps 741 mmHg 93%
01:00 +6°C° 0 mm 4 mps 741 mmHg 94%
02:00 +6°C° 0 mm 4 mps 741 mmHg 95%
03:00 +5°C° 0 mm 4 mps 741 mmHg 96%
04:00 +5°C° 0 mm 3 mps 741 mmHg 96%
05:00 +5°C° 0 mm 3 mps 741 mmHg 96%
06:00 +7°C° 0 mm 3 mps 741 mmHg 95%
07:00 +7°C° 0 mm 3 mps 741 mmHg 94%
08:00 +7°C° 0 mm 4 mps 741 mmHg 92%
09:00 +8°C° 0 mm 4 mps 741 mmHg 88%
10:00 +10°C° 0 mm 4 mps 741 mmHg 84%
11:00 +11°C° 0 mm 4 mps 741 mmHg 80%
12:00 +12°C° 0 mm 5 mps 740 mmHg 78%
13:00 +13°C° 0 mm 5 mps 740 mmHg 77%
14:00 +13°C° 0 mm 5 mps 740 mmHg 75%
15:00 +13°C° 0 mm 5 mps 739 mmHg 76%
16:00 +12°C° 0 mm 5 mps 739 mmHg 77%
17:00 +10°C° 0 mm 5 mps 738 mmHg 79%
18:00 +10°C° 0 mm 5 mps 738 mmHg 76%
19:00 +10°C° 0 mm 5 mps 738 mmHg 74%
20:00 +10°C° 0 mm 5 mps 738 mmHg 72%
21:00 +9°C° 0 mm 5 mps 737 mmHg 71%
22:00 +10°C° 0 mm 4 mps 737 mmHg 71%
23:00 +10°C° 0 mm 4 mps 736 mmHg 70%

24 October, Saturday

Time Temperature Precipitation Wind Pressure Humidity
00:00 +10°C° 0 mm 4 mps 736 mmHg 71%
01:00 +8°C° 0 mm 4 mps 736 mmHg 71%
02:00 +8°C° 0 mm 4 mps 735 mmHg 72%
03:00 +8°C° 0.1 mm 4 mps 735 mmHg 77%
04:00 +8°C° 0.1 mm 4 mps 735 mmHg 82%
05:00 +8°C° 0.1 mm 4 mps 735 mmHg 86%
06:00 +10°C° 0 mm 4 mps 736 mmHg 87%
07:00 +10°C° 0 mm 4 mps 736 mmHg 88%
08:00 +10°C° 0 mm 5 mps 736 mmHg 89%
09:00 +10°C° 0 mm 5 mps 736 mmHg 83%
10:00 +12°C° 0 mm 5 mps 737 mmHg 78%
11:00 +13°C° 0 mm 5 mps 737 mmHg 73%
12:00 +13°C° 0 mm 5 mps 737 mmHg 72%
13:00 +13°C° 0 mm 4 mps 737 mmHg 72%
14:00 +13°C° 0 mm 4 mps 737 mmHg 71%
15:00 +12°C° 0 mm 4 mps 737 mmHg 74%
16:00 +12°C° 0 mm 3 mps 737 mmHg 77%
17:00 +11°C° 0 mm 3 mps 737 mmHg 80%
18:00 +11°C° 0.1 mm 3 mps 737 mmHg 82%
19:00 +10°C° 0.1 mm 3 mps 737 mmHg 85%
20:00 +10°C° 0.1 mm 3 mps 737 mmHg 87%
21:00 +10°C° 0.1 mm 3 mps 736 mmHg 87%
22:00 +10°C° 0.1 mm 3 mps 736 mmHg 86%
23:00 +10°C° 0.1 mm 3 mps 736 mmHg 85%

25 October, Sunday

Time Temperature Precipitation Wind Pressure Humidity
00:00 +9°C° 0 mm 3 mps 736 mmHg 86%
01:00 +9°C° 0 mm 2 mps 735 mmHg 87%
02:00 +8°C° 0 mm 2 mps 735 mmHg 88%
03:00 +8°C° 1 mm 3 mps 734 mmHg 89%
04:00 +8°C° 1 mm 3 mps 734 mmHg 90%
05:00 +8°C° 1 mm 3 mps 733 mmHg 92%
06:00 +7°C° 1.3 mm 4 mps 733 mmHg 91%
07:00 +7°C° 1.3 mm 4 mps 733 mmHg 89%
08:00 +7°C° 1.3 mm 5 mps 733 mmHg 88%
09:00 +7°C° 0.4 mm 5 mps 733 mmHg 88%
10:00 +7°C° 0.4 mm 5 mps 734 mmHg 87%
11:00 +7°C° 0.4 mm 6 mps 734 mmHg 87%
12:00 +7°C° 0.2 mm 6 mps 734 mmHg 86%
13:00 +7°C° 0.2 mm 6 mps 734 mmHg 86%
14:00 +7°C° 0.2 mm 6 mps 734 mmHg 85%
15:00 +7°C° 0.2 mm 6 mps 735 mmHg 86%
16:00 +7°C° 0.2 mm 5 mps 735 mmHg 86%
17:00 +7°C° 0.2 mm 5 mps 735 mmHg 87%
18:00 +6°C° 0.1 mm 5 mps 736 mmHg 86%
19:00 +6°C° 0.1 mm 5 mps 736 mmHg 86%
20:00 +6°C° 0.1 mm 5 mps 736 mmHg 86%
21:00 +6°C° 0 mm 5 mps 737 mmHg 86%
22:00 +5°C° 0 mm 6 mps 737 mmHg 87%
23:00 +5°C° 0 mm 6 mps 738 mmHg 88%

26 October, Monday

Time Temperature Precipitation Wind Pressure Humidity
00:00 +4°C° 0 mm 6 mps 738 mmHg 85%
01:00 +4°C° 0 mm 7 mps 738 mmHg 81%
02:00 +4°C° 0 mm 7 mps 739 mmHg 78%
03:00 +3°C° 0 mm 7 mps 739 mmHg 80%
04:00 +2°C° 0 mm 6 mps 740 mmHg 81%
05:00 +1°C° 0 mm 6 mps 740 mmHg 83%
06:00 +1°C° 0 mm 6 mps 740 mmHg 83%
07:00 +1°C° 0 mm 6 mps 741 mmHg 84%
08:00 +1°C° 0 mm 5 mps 741 mmHg 84%
09:00 +2°C° 0 mm 6 mps 742 mmHg 78%
10:00 +3°C° 0 mm 6 mps 742 mmHg 71%
11:00 +4°C° 0 mm 6 mps 742 mmHg 65%
12:00 +4°C° 0 mm 6 mps 742 mmHg 64%
13:00 +4°C° 0 mm 6 mps 741 mmHg 62%
14:00 +5°C° 0 mm 6 mps 741 mmHg 61%
15:00 +4°C° 0 mm 6 mps 741 mmHg 69%
16:00 +4°C° 0 mm 6 mps 741 mmHg 76%
17:00 +5°C° 0 mm 5 mps 741 mmHg 84%
18:00 +3°C° 0.1 mm 6 mps 741 mmHg 80%
19:00 +3°C° 0.1 mm 7 mps 741 mmHg 76%
20:00 +1°C° 0.1 mm 8 mps 742 mmHg 73%
21:00 +2°C° 0 mm 7 mps 743 mmHg 74%
22:00 +1°C° 0 mm 6 mps 743 mmHg 75%
23:00 -1°C° 0 mm 6 mps 744 mmHg 77%
Show more